map of LFSO home
Great Circle Mapper logo
LFSO - Airport
Location
City:  Nancy, Lorraine, France
Name:Ochey
ICAO:LFSO

Details
Type:Airport (Aerodrome, Airfield)
Use:Military
Latitude:4834'59"N (48.583186)
Longitude:557'16"E (5.954525)
Elevation:1106 ft (337 m)
Variation:1.45E (WMM2015 magnetic declination)
0.13 annual change
Runways:1
Longest:7874 × 148 ft (2400 × 45 m)

Time
Time Zone:UTC+1 (DST+2)
Local Time:

Weather
METAR:LFSO 242300Z AUTO VRB02KT 9999 OVC029 10/09 Q1015
TAF:LFSO 242000Z 2421/2521 VRB02KT CAVOK PROB40
TEMPO 2502/2506 4000 BR BKN004

Related Locations
Nearby:
Farthest:CHT: 12082 mi / 19443 km
Waitangi [Tuuta], Chatham Islands, NZ

Find:

   beyond  
but within

Other Information
Maps:
NOTAMs:
Links:
Sources:

  
flag of France
flag of Lorraine
  

Sectional Chart

Flight Planning
at skyvector.com

Satellite Image

Google Maps Satellite view

 

Copyright © 2004-2016 Karl L. Swartz. All rights reserved.
The Great Circle Mapper name and logo are trademarks of the Great Circle Mapper.
All other trademarks mentioned herein belong to their respective owners.
Please see credits for attibutions and further copyright information.

  Follow gcmap on Facebook Follow gcmap on Twitter Follow gcmap on Google+ GCmap on LinkedIn

hCard Microformat

Geo Microformat